Find Starlink 3374

NORAD ID: 51112 Int'l Des: 2022-005 Owner: SPXS Country: US Constellation: starlink operational
LEOCIRCULAR

实时位置

正在加载3D地球...

关于 Starlink 3374

正在加载描述...

即将过境

Passes for default location (London). Set your location on the main map for personalized predictions.

高度历史

Loading altitude history...

两行轨道根数

1 51112U 22005J 26105.32708388 .00000353 00000-0 40257-4 0 9995
2 51112 53.2167 124.6177 0001206 88.3351 271.7780 15.08847599234413
Epoch: Apr 15, 2026 • Age: 25 hours

当前状态

高度 539.6 km
速度 7.59 km/s
星下点 11.14°N, 39.34°W
发射日期 Jan 19, 2022
运行时间 4.2 years
类型 internet

技术详情

分类 Payload
质量 297.00 kg
干质量 275.00 kg
总质量 297.00 kg
长度 0.20 m
直径 2.80 m
跨度 9.00 m
形状 Box + pan
制造商 SPXS
平台类型 Starlink
阶段状态 In Orbit
所有者/国家 SPXS/US

Most Searched